EW2957 Weather Reports


time (UTC)temp
C
wind
direction
speed
KPH
gust
KPH
rain 1hr
cm
rain 24hr
cm
rain mn
cm
humidity
%
barometer
mb
20260505093004 12 112 0.0 0.0 0.00 0.00 0.00 86 1011.9
20260505091501 12 161 0.0 0.0 0.00 0.00 0.00 86 1011.7
20260505084549 13 161 0.0 0.0 0.00 0.00 0.00 85 1011.5
20260505083049 13 157 0.0 0.0 0.00 0.00 0.00 84 1011.4
20260505081555 13 147 0.0 0.0 0.00 0.00 0.00 83 1011.4
20260505080046 13 202 0.0 0.0 0.00 0.00 0.00 82 1011.3
20260505074550 14 148 0.0 0.0 0.00 0.00 0.00 81 1011.2
20260505073034 14 197 0.0 0.0 0.00 0.00 0.00 80 1011.1
20260505071531 15 159 0.0 0.0 0.00 0.00 0.00 80 1010.9
20260505070030 15 159 0.0 0.0 0.00 0.00 0.00 80 1010.7
20260505064508 15 148 0.0 0.0 0.00 0.00 0.00 78 1010.6
20260505063006 15 144 0.0 0.0 0.00 0.00 0.00 77 1010.5
20260505061617 16 155 0.0 0.0 0.00 0.00 0.00 75 1010.3
20260505060052 17 122 0.0 3.2 0.00 0.00 0.00 73 1010.1
20260505054602 17 178 0.0 0.0 0.00 0.00 0.00 72 1010.0
20260505053046 17 194 0.0 0.0 0.00 0.00 0.00 71 1009.8
20260505051546 17 238 0.0 0.0 0.00 0.00 0.00 70 1009.6
20260505041534 20 178 0.0 0.0 0.00 0.00 0.00 62 1008.9
20260505040038 20 204 0.0 0.0 0.00 0.00 0.00 60 1008.7
20260505034532 21 217 0.0 0.0 0.00 0.00 0.00 58 1008.5
20260505033044 21 261 0.0 0.0 0.00 0.00 0.00 56 1008.3
20260505031531 22 321 0.0 0.0 0.00 0.00 0.00 53 1008.2
20260505030031 23 338 0.0 0.0 0.00 0.00 0.00 51 1008.0
20260505024551 24 338 0.0 0.0 0.00 0.00 0.00 48 1007.8
20260505023037 25 338 0.0 0.0 0.00 0.00 0.00 46 1007.7
20260505021544 25 5 0.0 0.0 0.00 0.00 0.00 45 1007.7
20260505020018 25 355 0.0 0.0 0.00 0.00 0.00 47 1007.7
20260505014522 25 79 0.0 0.0 0.00 0.00 0.00 45 1007.6
20260505013016 26 139 0.0 0.0 0.00 0.00 0.00 42 1007.6
20260505011518 26 167 0.0 0.0 0.00 0.00 0.00 41 1007.6
20260505010014 26 160 0.0 0.0 0.00 0.00 0.00 40 1007.7
20260505004521 26 134 0.0 0.0 0.00 0.00 0.00 40 1007.7
20260505003011 26 150 0.0 0.0 0.00 0.00 0.00 39 1007.9
20260505001511 26 203 0.0 0.0 0.00 0.00 0.00 39 1007.8
20260505000057 26 154 0.0 0.0 0.00 0.00 0.00 40 1007.9
20260504234553 26 147 0.0 0.0 0.00 0.00 0.00 40 1008.0
20260504233054 26 168 0.0 0.0 0.00 0.00 0.00 40 1008.0
20260504231539 25 136 0.0 0.0 0.00 0.00 0.00 41 1008.0
20260504230038 26 155 0.0 0.0 0.00 0.00 0.00 40 1008.0
20260504224537 27 138 0.0 0.0 0.00 0.00 0.00 38 1008.2
20260504223037 27 236 0.0 0.0 0.00 0.00 0.00 38 1008.4
20260504221538 27 115 0.0 0.0 0.00 0.00 0.00 40 1008.6
20260504220033 26 170 0.0 0.0 0.00 0.00 0.00 40 1008.8
20260504214530 26 153 0.0 0.0 0.00 0.00 0.00 40 1008.9
20260504213014 25 138 0.0 0.0 0.00 0.00 0.00 44 1008.9
20260504211511 25 96 0.0 0.0 0.00 0.00 0.00 42 1009.0
20260504210010 25 138 0.0 0.0 0.00 0.00 0.00 44 1009.2
20260504204516 24 118 0.0 0.0 0.00 0.00 0.00 44 1009.2
20260504203008 25 118 0.0 0.0 0.00 0.00 0.00 46 1009.2
20260504201505 24 86 0.0 0.0 0.00 0.00 0.00 43 1009.2
20260504200003 23 123 0.0 0.0 0.00 0.00 0.00 44 1009.3
20260504194504 23 119 0.0 0.0 0.00 0.00 0.00 44 1009.2
20260504193050 23 125 0.0 0.0 0.00 0.00 0.00 46 1009.3
20260504191548 23 128 0.0 0.0 0.00 0.00 0.00 46 1009.4
20260504190046 23 103 0.0 4.8 0.00 0.00 0.00 47 1009.4
20260504184543 22 153 0.0 1.6 0.00 0.00 0.00 51 1009.7
20260504183037 22 168 0.0 1.6 0.00 0.00 0.00 54 1009.6
20260504181535 21 132 0.0 0.0 0.00 0.00 0.00 56 1009.7
20260504180031 21 107 0.0 0.0 0.00 0.00 0.00 58 1009.7
20260504174529 21 150 0.0 0.0 0.00 0.00 0.00 59 1009.7
20260504173014 20 123 0.0 0.0 0.00 0.00 0.00 61 1009.7
20260504171511 20 148 0.0 1.6 0.00 0.00 0.00 63 1009.8